Location: Góry Miechowskie
(50.3599°N, 20.1803°E)
Time: 02:24:51
(UTC+00:00)

SR - Pass Details

Date: 14 September 2024
Orbit: 578 x 855 km, 66.7° (Epoch: 04 October)

Event Time Altitude Azimuth Distance (km) Brightness Sun altitude
Rises 17:46:37 0° 324° (NW) 2,851 ? -9.0°
Reaches altitude 10° 17:49:54 10° 351° (N) 1,985 ? -9.5°
Maximum altitude 17:52:13 14° 22° (NNE) 1,776 ? -9.9°
Drops below altitude 10° 17:54:36 10° 53° (NE) 2,055 ? -10.2°
Enters shadow 17:56:00 - 66° (ENE) 2,392 ? -10.4°
